Miscellaneous Local Product
Issued by NWS Hastings, NE

Home | Current Version | Previous Version | Text Only | Print | Product List | Glossary On
Versions: 1 2 3 4 5 6 7 8 9 10 11 12 13 14 15 16 17 18 19 20 21 22 23 24 25 26 27 28 29 30 31 32 33 34 35 36 37 38 39 40 41 42 43 44 45 46 47 48 49 50
000
AXUS43 KGID 242102
MISGRI

GID CWA HOURLY WEATHER ROUNDUP
NATIONAL WEATHER SERVICE HASTINGS NE
300 PM CST TUE JAN 24 2017

NOTE: "FAIR" INDICATES FEW OR NO CLOUDS BELOW 12,000 FEET WITH NO
SIGNIFICANT WEATHER AND/OR OBSTRUCTIONS TO VISIBILITY.

...SOUTH CENTRAL NEBRASKA...

CITY           SKY/WX    TMP DP  RH WIND       PRES   REMARKS
GRAND ISLAND   LGT SNOW  31  30  96 E9        29.50S FOG     WCI  23
HASTINGS       CLOUDY    31  30  96 E12       29.47F FOG     WCI  22
KEARNEY        CLOUDY    30  27  86 NE8       29.49R WCI  23
ORD            LGT SNOW  31  27  85 E10       29.52S FOG     WCI  22
YORK           SUNNY     32  32 100 E10       29.50R WCI  24
AURORA         MIX PCPN  31  31  99 E8        29.49S WCI  24
LEXINGTON      CLOUDY    32  29  87 N8        29.49S WCI  25
HOLDREGE       CLOUDY    32  30  92 N7        29.47S WCI  26
HEBRON         CLOUDY    34  32  91 NE10      29.46R FOG     WCI  26

...NEBRASKA PANHANDLE...

CITY           SKY/WX    TMP DP  RH WIND       PRES   REMARKS
CHADRON        SNOW      22  18  85 N18       29.75R VSB 1/2 WCI   7
ALLIANCE       FOG       20  16  84 N24G33    29.64R VSB 1   WCI   3
SCOTTSBLUFF    CLOUDY    25  16  68 N20       29.69R WCI  11
SIDNEY         CLOUDY    22  17  81 N30G37    29.62R BLWGSNOWWCI   4

...WESTERN AND NORTH CENTRAL NEBRASKA...

CITY           SKY/WX    TMP DP  RH WIND       PRES   REMARKS
VALENTINE      LGT SNOW  28  25  88 N14       29.61F VSB 3/4 WCI  17
AINSWORTH      SNOW      28  28 100 N15       29.59R VSB 1/2 WCI  17
ONEILL         HVY SNOW  30  29  98 N15       29.58R VSB 1/4 WCI  19
BROKEN BOW     LGT SNOW  30  28  92 NE13      29.50S VSB 1   WCI  20
NORTH PLATTE   LGT RAIN  32  27  81 N16       29.52R WCI  21
MCCOOK         CLOUDY    33  29  85 N16       29.49S WCI  23

...EASTERN NEBRASKA...

CITY           SKY/WX    TMP DP  RH WIND       PRES   REMARKS
NORFOLK        LGT SNOW  31  28  89 NE14      29.50F VSB 3/4 WCI  21
SO SIOUX CITY  CLOUDY    33  29  85 E18G28    29.59F WCI  22
TEKAMAH        LGT SNOW  33  29  85 E18G25    29.53F FOG     WCI  22
COLUMBUS       CLOUDY    30  27  86 E15       29.52R WCI  19
ALBION         LGT SNOW  32  29  90 E9        29.53R VSB 1   WCI  24
OMAHA EPPLEY   CLOUDY    35  28  75 NE13      29.55F WCI  26
MILLARD        CLOUDY    38  31  78 E12G17    29.52F WCI  30
LINCOLN        CLOUDY    35  29  78 E14       29.51R WCI  26
NEBRASKA CITY  CLOUDY    37  30  78 E14       29.48F WCI  28
BEATRICE       CLOUDY    36  33  88 E10       29.46S FOG     WCI  28
FALLS CITY     CLOUDY    40  34  79 SE17      29.47R WCI  31

...NORTHERN KANSAS...

CITY           SKY/WX    TMP DP  RH WIND       PRES   REMARKS
GOODLAND       CLOUDY    30  25  81 N29G36    29.50R WCI  15
HILL CITY      CLOUDY    34  32  92 N15       29.49R FOG     WCI  24
NORTON         CLOUDY    34  27  75 NW13      29.47R WCI  25
PHILLIPSBURG   CLOUDY    34  34 100 NW10      29.48R WCI  26
SMITH CENTER   CLOUDY    34  30  86 N12       29.46R FOG     WCI  25
HAYS           CLOUDY    37  32  82 NW17      29.47R WCI  27
RUSSELL        CLOUDY    38  32  79 NW16      29.44R WCI  29
CONCORDIA      MOSUNNY   48  37  65 NE8       29.39R
SALINA         SUNNY     63  39  41 SW15G21   29.36F
TOPEKA         SUNNY     55  39  54 E12       29.41S



USA.gov is the U.S. government's official web portal to all federal, state and local government web resources and services.